Tracking 29933 objects as of 2-Dec-2024
HD Live streaming from Space Station
objects crossing your sky now

STARLINK-5482

Track STARLINK-5482 now!
10-day predictions
STARLINK-5482 is classified as:


NORAD ID: 56358
Int'l Code: 2023-058AT
Perigee: 569.1 km
Apogee: 571.1 km
Inclination: 97.7 °
Period: 95.9 minutes
Semi major axis: 6941 km
RCS: Unknown
Launch date: April 27, 2023
Source: United States (US)
Launch site: AIR FORCE WESTERN TEST RANGE (AFWTR)
Your satellite tracking list
Your tracking list is empty




NASA's NSSDC Master Catalog

Two Line Element Set (TLE):
1 56358U 23058AT  24336.98923665  .00003021  00000-0  23957-3 0  9996
2 56358  97.6554 335.4671 0001412  96.0558 264.0827 15.01283145 88224
Source of the keplerian elements: AFSPC